When you browse on this site, cookies collect data to enhance your experience and personalize the content and advertising you see.
Visit our Privacy Policy to learn more. By continuing to use the site, you agree to this use of cookies and data.
  • In Romania
  • List of Countries
  • For 7 days
  • Water Temperature
  • Weather Map
  • Weather Widgets
  • user-avatar
    Login

    Hourly Weather Saint-Maximin-la-Sainte-Baume

    Today, 21 August, Wednesday

    Time Temperature Precipitation Wind Pressure Humidity
    00:00 +19°C° 0 mm 2 mps 737 mmHg 78%
    01:00 +19°C° 0 mm 2 mps 736 mmHg 78%
    02:00 +19°C° 0 mm 2 mps 736 mmHg 78%
    03:00 +18°C° 0 mm 2 mps 736 mmHg 78%
    04:00 +19°C° 0 mm 2 mps 736 mmHg 75%
    05:00 +20°C° 0 mm 1 mps 736 mmHg 73%
    06:00 +21°C° 0 mm 1 mps 736 mmHg 71%
    07:00 +24°C° 0 mm 2 mps 737 mmHg 65%
    08:00 +26°C° 0 mm 2 mps 737 mmHg 59%
    09:00 +28°C° 0 mm 3 mps 737 mmHg 53%
    10:00 +30°C° 0 mm 3 mps 737 mmHg 48%
    11:00 +32°C° 0 mm 4 mps 737 mmHg 43%
    12:00 +33°C° 0 mm 4 mps 738 mmHg 39%
    13:00 +32°C° 0 mm 4 mps 737 mmHg 39%
    14:00 +32°C° 0 mm 4 mps 737 mmHg 40%
    15:00 +31°C° 0 mm 3 mps 737 mmHg 40%
    16:00 +29°C° 0 mm 3 mps 737 mmHg 45%
    17:00 +28°C° 0 mm 2 mps 737 mmHg 49%
    18:00 +27°C° 0 mm 1 mps 737 mmHg 54%
    19:00 +25°C° 0 mm 1 mps 737 mmHg 59%
    20:00 +24°C° 0 mm 1 mps 737 mmHg 63%
    21:00 +21°C° 0 mm 0 mps 737 mmHg 68%
    22:00 +23°C° 0 mm 1 mps 737 mmHg 68%
    23:00 +22°C° 0 mm 1 mps 737 mmHg 68%

    Tomorrow, 22 August, Thursday

    Time Temperature Precipitation Wind Pressure Humidity
    00:00 +22°C° 0 mm 1 mps 737 mmHg 68%
    01:00 +22°C° 0 mm 1 mps 737 mmHg 67%
    02:00 +22°C° 0 mm 1 mps 736 mmHg 66%
    03:00 +22°C° 0 mm 1 mps 736 mmHg 66%
    04:00 +22°C° 0 mm 1 mps 736 mmHg 64%
    05:00 +23°C° 0 mm 1 mps 737 mmHg 62%
    06:00 +23°C° 0 mm 1 mps 737 mmHg 60%
    07:00 +25°C° 0 mm 1 mps 737 mmHg 54%
    08:00 +27°C° 0 mm 2 mps 738 mmHg 49%
    09:00 +29°C° 0 mm 2 mps 738 mmHg 43%
    10:00 +30°C° 0 mm 2 mps 738 mmHg 41%
    11:00 +31°C° 0 mm 2 mps 738 mmHg 39%
    12:00 +33°C° 0 mm 3 mps 738 mmHg 36%
    13:00 +31°C° 0.6 mm 3 mps 738 mmHg 41%
    14:00 +30°C° 0.6 mm 3 mps 737 mmHg 46%
    15:00 +29°C° 0.6 mm 3 mps 737 mmHg 50%
    16:00 +27°C° 1.2 mm 2 mps 737 mmHg 58%
    17:00 +25°C° 1.2 mm 2 mps 737 mmHg 67%
    18:00 +23°C° 1.2 mm 2 mps 737 mmHg 75%
    19:00 +23°C° 0 mm 1 mps 737 mmHg 75%
    20:00 +22°C° 0 mm 1 mps 737 mmHg 75%
    21:00 +22°C° 0 mm 1 mps 738 mmHg 75%
    22:00 +22°C° 0 mm 1 mps 738 mmHg 74%
    23:00 +21°C° 0 mm 1 mps 737 mmHg 74%

    Day after tomorrow, 23 August, Friday

    Time Temperature Precipitation Wind Pressure Humidity
    00:00 +21°C° 0 mm 1 mps 737 mmHg 74%
    01:00 +21°C° 0 mm 1 mps 737 mmHg 73%
    02:00 +21°C° 0 mm 1 mps 737 mmHg 73%
    03:00 +21°C° 0 mm 1 mps 737 mmHg 72%
    04:00 +21°C° 0 mm 1 mps 737 mmHg 70%
    05:00 +22°C° 0 mm 1 mps 737 mmHg 68%
    06:00 +22°C° 0 mm 1 mps 737 mmHg 66%
    07:00 +25°C° 0 mm 1 mps 738 mmHg 57%
    08:00 +28°C° 0 mm 1 mps 738 mmHg 48%
    09:00 +31°C° 0 mm 1 mps 738 mmHg 39%
    10:00 +32°C° 0 mm 1 mps 738 mmHg 37%
    11:00 +34°C° 0 mm 2 mps 738 mmHg 34%
    12:00 +35°C° 0 mm 2 mps 738 mmHg 32%
    13:00 +34°C° 0 mm 3 mps 738 mmHg 34%
    14:00 +33°C° 0 mm 3 mps 737 mmHg 37%
    15:00 +33°C° 0 mm 3 mps 737 mmHg 39%
    16:00 +30°C° 0.1 mm 3 mps 737 mmHg 44%
    17:00 +29°C° 0.1 mm 2 mps 737 mmHg 49%
    18:00 +28°C° 0.1 mm 1 mps 737 mmHg 54%
    19:00 +26°C° 0.1 mm 1 mps 737 mmHg 59%
    20:00 +25°C° 0.1 mm 1 mps 737 mmHg 63%
    21:00 +22°C° 0.1 mm 0 mps 737 mmHg 68%
    22:00 +22°C° 0 mm 0 mps 737 mmHg 69%
    23:00 +23°C° 0 mm 1 mps 737 mmHg 70%

    24 August, Saturday

    Time Temperature Precipitation Wind Pressure Humidity
    00:00 +23°C° 0 mm 1 mps 737 mmHg 71%
    01:00 +23°C° 0 mm 1 mps 737 mmHg 72%
    02:00 +22°C° 0 mm 1 mps 737 mmHg 73%
    03:00 +22°C° 0 mm 1 mps 737 mmHg 73%
    04:00 +23°C° 0 mm 1 mps 737 mmHg 71%
    05:00 +23°C° 0 mm 1 mps 737 mmHg 70%
    06:00 +23°C° 0 mm 1 mps 737 mmHg 68%
    07:00 +26°C° 0 mm 1 mps 737 mmHg 59%
    08:00 +27°C° 0 mm 0 mps 737 mmHg 50%
    09:00 +29°C° 0 mm 0 mps 738 mmHg 41%
    10:00 +32°C° 0 mm 1 mps 738 mmHg 38%
    11:00 +34°C° 0 mm 2 mps 738 mmHg 35%
    12:00 +35°C° 0 mm 3 mps 737 mmHg 33%
    13:00 +34°C° 0 mm 3 mps 737 mmHg 34%
    14:00 +34°C° 0 mm 3 mps 737 mmHg 35%
    15:00 +33°C° 0 mm 4 mps 737 mmHg 36%
    16:00 +31°C° 0 mm 3 mps 736 mmHg 40%
    17:00 +29°C° 0 mm 3 mps 736 mmHg 45%
    18:00 +28°C° 0 mm 2 mps 736 mmHg 50%
    19:00 +26°C° 0 mm 2 mps 736 mmHg 54%
    20:00 +25°C° 0 mm 1 mps 736 mmHg 57%
    21:00 +24°C° 0 mm 1 mps 736 mmHg 61%
    22:00 +23°C° 0 mm 1 mps 736 mmHg 63%
    23:00 +23°C° 0 mm 1 mps 736 mmHg 65%

    25 August, Sunday

    Time Temperature Precipitation Wind Pressure Humidity
    00:00 +23°C° 0 mm 1 mps 736 mmHg 67%
    01:00 +22°C° 0 mm 1 mps 736 mmHg 67%
    02:00 +22°C° 0 mm 1 mps 736 mmHg 68%
    03:00 +22°C° 0 mm 1 mps 736 mmHg 68%
    04:00 +22°C° 0 mm 1 mps 736 mmHg 66%
    05:00 +23°C° 0 mm 1 mps 736 mmHg 64%
    06:00 +23°C° 0 mm 1 mps 736 mmHg 62%
    07:00 +26°C° 0 mm 1 mps 736 mmHg 53%
    08:00 +29°C° 0 mm 1 mps 737 mmHg 44%
    09:00 +32°C° 0 mm 1 mps 737 mmHg 35%
    10:00 +32°C° 0 mm 2 mps 737 mmHg 33%
    11:00 +34°C° 0 mm 2 mps 737 mmHg 31%
    12:00 +35°C° 0 mm 3 mps 737 mmHg 28%
    13:00 +35°C° 0 mm 3 mps 737 mmHg 29%
    14:00 +34°C° 0 mm 4 mps 737 mmHg 30%
    15:00 +34°C° 0 mm 4 mps 736 mmHg 31%
    16:00 +31°C° 0 mm 3 mps 736 mmHg 37%
    17:00 +29°C° 0 mm 3 mps 736 mmHg 43%
    18:00 +27°C° 0 mm 2 mps 736 mmHg 49%
    19:00 +26°C° 0 mm 2 mps 736 mmHg 53%
    20:00 +25°C° 0 mm 1 mps 736 mmHg 57%
    21:00 +24°C° 0 mm 1 mps 736 mmHg 61%
    22:00 +23°C° 0 mm 1 mps 736 mmHg 63%
    23:00 +23°C° 0 mm 1 mps 736 mmHg 64%

    26 August, Monday

    Time Temperature Precipitation Wind Pressure Humidity
    00:00 +23°C° 0 mm 1 mps 736 mmHg 65%
    01:00 +22°C° 0 mm 1 mps 736 mmHg 65%
    02:00 +22°C° 0 mm 1 mps 736 mmHg 65%
    03:00 +22°C° 0 mm 1 mps 736 mmHg 66%
    04:00 +22°C° 0 mm 1 mps 736 mmHg 63%
    05:00 +23°C° 0 mm 1 mps 736 mmHg 60%
    06:00 +23°C° 0 mm 1 mps 737 mmHg 57%
    07:00 +26°C° 0 mm 1 mps 737 mmHg 49%
    08:00 +29°C° 0 mm 1 mps 737 mmHg 41%
    09:00 +32°C° 0 mm 1 mps 738 mmHg 34%
    10:00 +33°C° 0 mm 1 mps 738 mmHg 31%
    11:00 +35°C° 0 mm 2 mps 738 mmHg 28%
    12:00 +37°C° 0 mm 2 mps 738 mmHg 25%
    13:00 +36°C° 0 mm 2 mps 738 mmHg 26%
    14:00 +36°C° 0 mm 3 mps 737 mmHg 28%
    15:00 +35°C° 0 mm 3 mps 737 mmHg 29%
    16:00 +33°C° 0 mm 3 mps 737 mmHg 35%
    17:00 +30°C° 0 mm 2 mps 737 mmHg 41%
    18:00 +28°C° 0 mm 1 mps 737 mmHg 46%
    19:00 +27°C° 0 mm 1 mps 737 mmHg 50%
    20:00 +26°C° 0 mm 1 mps 737 mmHg 53%
    21:00 +25°C° 0 mm 1 mps 737 mmHg 56%
    22:00 +25°C° 0 mm 1 mps 737 mmHg 56%
    23:00 +24°C° 0 mm 1 mps 737 mmHg 57%
    Show more